Time,TemperatureF,DewpointF,PressureIn,WindDirection,WindDirectionDegrees,WindSpeedMPH,WindSpeedGustMPH,Humidity,HourlyPrecipIn,Conditions,Clouds,dailyrainin,SoftwareType,DateUTC
2013-02-07 00:03:00,21.6,17.0,30.14,ESE,112,3.0,3.0,83,0.00,,,0.02,weatherlink.com 1.10,2013-02-07 07:03:00,
2013-02-07 00:18:00,20.2,17.0,30.14,WSW,243,0.0,1.0,86,0.00,,,0.02,weatherlink.com 1.10,2013-02-07 07:18:00,
2013-02-07 00:33:00,20.2,16.0,30.14,SW,232,0.0,2.0,84,0.00,,,0.02,weatherlink.com 1.10,2013-02-07 07:33:00,
2013-02-07 00:48:00,19.9,16.0,30.14,ESE,105,0.0,1.0,85,0.00,,,0.02,weatherlink.com 1.10,2013-02-07 07:48:00,
2013-02-07 01:03:00,20.4,17.0,30.14,WSW,245,1.0,1.0,86,0.00,,,0.02,weatherlink.com 1.10,2013-02-07 08:03:00,
2013-02-07 01:18:00,20.9,17.0,30.13,East,92,0.0,1.0,85,0.00,,,0.02,weatherlink.com 1.10,2013-02-07 08:18:00,
2013-02-07 01:33:00,21.2,17.0,30.12,ESE,114,0.0,3.0,84,0.00,,,0.02,weatherlink.com 1.10,2013-02-07 08:33:00,
2013-02-07 01:48:00,22.0,18.0,30.12,SW,217,0.0,1.0,83,0.00,,,0.02,weatherlink.com 1.10,2013-02-07 08:48:00,
2013-02-07 02:03:00,21.3,17.0,30.12,SW,226,1.0,1.0,83,0.00,,,0.02,weatherlink.com 1.10,2013-02-07 09:03:00,
2013-02-07 02:18:00,18.4,15.0,30.11,WSW,248,0.0,2.0,85,0.00,,,0.02,weatherlink.com 1.10,2013-02-07 09:18:00,
2013-02-07 02:33:00,19.3,16.0,30.12,SW,236,1.0,2.0,85,0.00,,,0.02,weatherlink.com 1.10,2013-02-07 09:33:00,
2013-02-07 02:48:00,18.3,15.0,30.12,East,82,0.0,1.0,86,0.00,,,0.02,weatherlink.com 1.10,2013-02-07 09:48:00,
2013-02-07 03:03:00,17.2,15.0,30.11,East,96,0.0,1.0,90,0.00,,,0.02,weatherlink.com 1.10,2013-02-07 10:03:00,
2013-02-07 03:18:00,18.2,16.0,30.11,NE,53,0.0,3.0,89,0.00,,,0.02,weatherlink.com 1.10,2013-02-07 10:18:00,
2013-02-07 03:33:00,19.5,16.0,30.10,SE,131,1.0,2.0,86,0.00,,,0.02,weatherlink.com 1.10,2013-02-07 10:33:00,
2013-02-07 03:48:00,19.2,16.0,30.09,ESE,107,0.0,1.0,87,0.00,,,0.02,weatherlink.com 1.10,2013-02-07 10:48:00,
2013-02-07 04:03:00,21.5,17.0,30.08,SW,228,0.0,1.0,84,0.00,,,0.02,weatherlink.com 1.10,2013-02-07 11:03:00,
2013-02-07 04:18:00,21.8,17.0,30.08,West,273,1.0,3.0,80,0.00,,,0.02,weatherlink.com 1.10,2013-02-07 11:18:00,
2013-02-07 04:33:00,19.8,16.0,30.08,East,81,0.0,1.0,85,0.00,,,0.02,weatherlink.com 1.10,2013-02-07 11:33:00,
2013-02-07 04:48:00,20.7,17.0,30.08,East,80,0.0,1.0,84,0.00,,,0.02,weatherlink.com 1.10,2013-02-07 11:48:00,
2013-02-07 05:03:00,19.7,16.0,30.08,East,81,0.0,1.0,86,0.00,,,0.02,weatherlink.com 1.10,2013-02-07 12:03:00,
2013-02-07 05:18:00,19.3,16.0,30.07,East,101,0.0,3.0,85,0.00,,,0.02,weatherlink.com 1.10,2013-02-07 12:18:00,
2013-02-07 05:33:00,18.6,15.0,30.07,ENE,70,0.0,3.0,85,0.00,,,0.02,weatherlink.com 1.10,2013-02-07 12:33:00,
2013-02-07 05:48:00,18.1,15.0,30.06,East,84,2.0,2.0,86,0.00,,,0.02,weatherlink.com 1.10,2013-02-07 12:48:00,
2013-02-07 06:03:00,19.1,16.0,30.05,East,81,0.0,1.0,88,0.00,,,0.00,weatherlink.com 1.10,2013-02-07 13:03:00,
2013-02-07 06:18:00,17.8,14.0,30.06,WSW,250,3.0,3.0,86,0.00,,,0.00,weatherlink.com 1.10,2013-02-07 13:18:00,
2013-02-07 06:33:00,17.4,14.0,30.06,East,80,1.0,3.0,87,0.00,,,0.00,weatherlink.com 1.10,2013-02-07 13:33:00,
2013-02-07 06:48:00,17.1,14.0,30.05,East,79,1.0,2.0,88,0.00,,,0.00,weatherlink.com 1.10,2013-02-07 13:48:00,
2013-02-07 07:03:00,17.9,15.0,30.05,ESE,113,0.0,2.0,89,0.00,,,0.00,weatherlink.com 1.10,2013-02-07 14:03:00,
2013-02-07 07:18:00,18.4,16.0,30.06,East,79,1.0,1.0,88,0.00,,,0.00,weatherlink.com 1.10,2013-02-07 14:18:00,
2013-02-07 07:33:00,19.0,16.0,30.06,SSE,152,0.0,1.0,89,0.00,,,0.00,weatherlink.com 1.10,2013-02-07 14:33:00,
2013-02-07 07:49:00,20.2,17.0,30.06,East,87,1.0,1.0,86,0.00,,,0.00,weatherlink.com 1.10,2013-02-07 14:49:00,
2013-02-07 08:03:00,19.7,17.0,30.05,East,83,1.0,1.0,89,0.00,,,0.00,weatherlink.com 1.10,2013-02-07 15:03:00,
2013-02-07 08:18:00,19.4,17.0,30.06,ENE,77,0.0,3.0,89,0.00,,,0.00,weatherlink.com 1.10,2013-02-07 15:18:00,
2013-02-07 08:33:00,22.1,18.0,30.05,ENE,77,0.0,0.0,85,0.00,,,0.00,weatherlink.com 1.10,2013-02-07 15:33:00,
2013-02-07 08:48:00,21.5,18.0,30.05,East,82,0.0,1.0,85,0.00,,,0.00,weatherlink.com 1.10,2013-02-07 15:48:00,
2013-02-07 09:03:00,21.6,18.0,30.05,ENE,77,0.0,1.0,84,0.00,,,0.00,weatherlink.com 1.10,2013-02-07 16:03:00,
2013-02-07 09:19:00,21.7,17.0,30.05,SW,225,2.0,3.0,83,0.00,,,0.00,weatherlink.com 1.10,2013-02-07 16:19:00,
2013-02-07 09:34:00,21.1,17.0,30.05,SW,224,0.0,2.0,84,0.00,,,0.00,weatherlink.com 1.10,2013-02-07 16:34:00,
2013-02-07 09:49:00,22.1,18.0,30.05,ENE,78,0.0,2.0,83,0.00,,,0.00,weatherlink.com 1.10,2013-02-07 16:49:00,
2013-02-07 10:04:00,22.4,18.0,30.05,East,86,2.0,2.0,84,0.00,,,0.00,weatherlink.com 1.10,2013-02-07 17:04:00,
2013-02-07 10:19:00,22.9,19.0,30.04,ESE,106,0.0,1.0,85,0.00,,,0.00,weatherlink.com 1.10,2013-02-07 17:19:00,
2013-02-07 10:34:00,26.6,20.0,30.04,East,84,0.0,1.0,77,0.00,,,0.00,weatherlink.com 1.10,2013-02-07 17:34:00,
2013-02-07 10:49:00,28.3,21.0,30.03,SW,225,1.0,2.0,75,0.00,,,0.00,weatherlink.com 1.10,2013-02-07 17:49:00,
2013-02-07 11:04:00,28.4,21.0,30.03,East,82,0.0,2.0,74,0.00,,,0.00,weatherlink.com 1.10,2013-02-07 18:04:00,
2013-02-07 11:34:00,30.0,22.0,30.04,East,89,1.0,2.0,71,0.00,,,0.00,weatherlink.com 1.10,2013-02-07 18:34:00,
2013-02-07 11:49:00,29.0,21.0,30.03,East,101,0.0,2.0,73,0.00,,,0.00,weatherlink.com 1.10,2013-02-07 18:49:00,
2013-02-07 12:04:00,31.1,21.0,30.03,ENE,63,1.0,2.0,65,0.00,,,0.00,weatherlink.com 1.10,2013-02-07 19:04:00,
2013-02-07 12:19:00,31.7,21.0,30.02,East,81,0.0,1.0,65,0.00,,,0.00,weatherlink.com 1.10,2013-02-07 19:19:00,
2013-02-07 12:34:00,33.4,22.0,30.01,SW,224,1.0,2.0,62,0.00,,,0.00,weatherlink.com 1.10,2013-02-07 19:34:00,
2013-02-07 12:49:00,33.3,21.0,30.00,SW,233,1.0,3.0,60,0.00,,,0.00,weatherlink.com 1.10,2013-02-07 19:49:00,
2013-02-07 13:04:00,34.1,21.0,30.00,ENE,58,0.0,2.0,59,0.00,,,0.00,weatherlink.com 1.10,2013-02-07 20:04:00,
2013-02-07 13:19:00,35.6,22.0,29.98,ENE,61,0.0,1.0,59,0.00,,,0.00,weatherlink.com 1.10,2013-02-07 20:19:00,
2013-02-07 13:34:00,35.8,21.0,29.98,East,97,1.0,1.0,56,0.00,,,0.00,weatherlink.com 1.10,2013-02-07 20:34:00,
2013-02-07 13:49:00,34.8,21.0,29.98,SW,221,1.0,2.0,58,0.00,,,0.00,weatherlink.com 1.10,2013-02-07 20:49:00,
2013-02-07 14:04:00,36.2,21.0,29.97,East,94,1.0,1.0,54,0.00,,,0.00,weatherlink.com 1.10,2013-02-07 21:04:00,
2013-02-07 14:19:00,34.8,21.0,29.97,East,80,3.0,4.0,57,0.00,,,0.00,weatherlink.com 1.10,2013-02-07 21:19:00,
2013-02-07 14:34:00,34.1,21.0,29.96,East,89,1.0,3.0,60,0.00,,,0.00,weatherlink.com 1.10,2013-02-07 21:34:00,
2013-02-07 14:49:00,34.3,20.0,29.96,East,79,3.0,4.0,56,0.00,,,0.00,weatherlink.com 1.10,2013-02-07 21:49:00,
2013-02-07 15:04:00,34.5,20.0,29.96,East,86,1.0,4.0,55,0.00,,,0.00,weatherlink.com 1.10,2013-02-07 22:04:00,
2013-02-07 15:19:00,34.6,20.0,29.96,ESE,107,2.0,4.0,56,0.00,,,0.00,weatherlink.com 1.10,2013-02-07 22:19:00,
2013-02-07 15:34:00,34.8,21.0,29.96,East,87,0.0,2.0,57,0.00,,,0.00,weatherlink.com 1.10,2013-02-07 22:34:00,
2013-02-07 15:49:00,35.6,21.0,29.96,SE,137,0.0,1.0,56,0.00,,,0.00,weatherlink.com 1.10,2013-02-07 22:49:00,
2013-02-07 16:04:00,34.7,20.0,29.96,ENE,70,0.0,1.0,56,0.01,,,0.01,weatherlink.com 1.10,2013-02-07 23:04:00,
2013-02-07 16:19:00,35.0,21.0,29.96,WNW,293,0.0,1.0,57,0.01,,,0.01,weatherlink.com 1.10,2013-02-07 23:19:00,
2013-02-07 16:34:00,34.8,21.0,29.96,East,90,0.0,1.0,57,0.01,,,0.01,weatherlink.com 1.10,2013-02-07 23:34:00,
2013-02-07 17:04:00,34.7,21.0,29.96,North,8,0.0,1.0,58,0.00,,,0.01,weatherlink.com 1.10,2013-02-08 00:04:00,
2013-02-07 17:19:00,34.3,22.0,29.97,WSW,256,0.0,2.0,60,0.00,,,0.01,weatherlink.com 1.10,2013-02-08 00:19:00,
2013-02-07 17:35:00,33.7,22.0,29.97,WSW,242,0.0,0.0,62,0.00,,,0.01,weatherlink.com 1.10,2013-02-08 00:35:00,
2013-02-07 17:50:00,32.8,22.0,29.97,SW,233,0.0,1.0,65,0.00,,,0.01,weatherlink.com 1.10,2013-02-08 00:50:00,
2013-02-07 18:05:00,31.8,22.0,29.98,SW,226,0.0,0.0,68,0.00,,,0.01,weatherlink.com 1.10,2013-02-08 01:05:00,
2013-02-07 18:20:00,31.4,22.0,29.98,SE,140,0.0,1.0,68,0.00,,,0.01,weatherlink.com 1.10,2013-02-08 01:20:00,
2013-02-07 18:35:00,31.2,23.0,29.99,WSW,240,0.0,3.0,71,0.00,,,0.01,weatherlink.com 1.10,2013-02-08 01:35:00,
2013-02-07 18:50:00,30.6,23.0,30.00,SSE,149,0.0,2.0,72,0.00,,,0.01,weatherlink.com 1.10,2013-02-08 01:50:00,
2013-02-07 19:05:00,30.3,23.0,30.00,ENE,63,0.0,2.0,75,0.00,,,0.01,weatherlink.com 1.10,2013-02-08 02:05:00,
2013-02-07 19:20:00,29.9,23.0,30.00,ENE,62,0.0,0.0,76,0.00,,,0.01,weatherlink.com 1.10,2013-02-08 02:20:00,
2013-02-07 19:35:00,29.8,23.0,30.00,ESE,103,0.0,1.0,77,0.00,,,0.01,weatherlink.com 1.10,2013-02-08 02:35:00,
2013-02-07 19:50:00,29.5,24.0,30.00,SW,226,0.0,2.0,79,0.00,,,0.01,weatherlink.com 1.10,2013-02-08 02:50:00,
2013-02-07 20:05:00,29.4,23.0,30.00,East,82,1.0,1.0,78,0.00,,,0.01,weatherlink.com 1.10,2013-02-08 03:05:00,
2013-02-07 20:20:00,29.7,23.0,30.00,WSW,242,0.0,1.0,76,0.00,,,0.01,weatherlink.com 1.10,2013-02-08 03:20:00,
2013-02-07 20:35:00,29.2,23.0,30.00,NE,34,0.0,2.0,77,0.00,,,0.01,weatherlink.com 1.10,2013-02-08 03:35:00,
2013-02-07 20:50:00,28.5,23.0,30.00,NE,34,0.0,0.0,79,0.00,,,0.01,weatherlink.com 1.10,2013-02-08 03:50:00,
2013-02-07 21:05:00,28.4,23.0,30.00,SE,129,0.0,1.0,79,0.00,,,0.01,weatherlink.com 1.10,2013-02-08 04:05:00,
2013-02-07 21:20:00,28.1,23.0,29.99,SE,129,0.0,0.0,80,0.00,,,0.01,weatherlink.com 1.10,2013-02-08 04:20:00,
2013-02-07 21:35:00,27.5,22.0,29.99,SE,130,0.0,0.0,81,0.00,,,0.01,weatherlink.com 1.10,2013-02-08 04:35:00,
2013-02-07 21:50:00,26.9,22.0,30.00,SSE,157,0.0,0.0,83,0.00,,,0.01,weatherlink.com 1.10,2013-02-08 04:50:00,
2013-02-07 22:05:00,25.7,22.0,29.99,SSE,156,0.0,0.0,85,0.00,,,0.01,weatherlink.com 1.10,2013-02-08 05:05:00,
2013-02-07 22:20:00,25.4,22.0,29.99,SSE,156,0.0,1.0,87,0.00,,,0.01,weatherlink.com 1.10,2013-02-08 05:20:00,
2013-02-07 22:35:00,25.5,23.0,29.99,WSW,252,0.0,1.0,88,0.00,,,0.01,weatherlink.com 1.10,2013-02-08 05:35:00,
2013-02-07 22:50:00,25.4,22.0,29.99,SW,233,0.0,1.0,87,0.00,,,0.01,weatherlink.com 1.10,2013-02-08 05:50:00,
2013-02-07 23:05:00,24.3,21.0,29.99,SW,236,0.0,1.0,88,0.00,,,0.01,weatherlink.com 1.10,2013-02-08 06:05:00,
2013-02-07 23:20:00,23.5,21.0,29.99,NE,47,0.0,1.0,89,0.00,,,0.01,weatherlink.com 1.10,2013-02-08 06:20:00,
2013-02-07 23:35:00,22.2,20.0,30.00,WNW,284,0.0,2.0,91,0.00,,,0.01,weatherlink.com 1.10,2013-02-08 06:35:00,
2013-02-07 23:50:00,21.9,18.0,30.00,East,91,1.0,1.0,86,0.00,,,0.01,weatherlink.com 1.10,2013-02-08 06:50:00,